Time,TemperatureF,DewpointF,PressureIn,WindDirection,WindDirectionDegrees,WindSpeedMPH,WindSpeedGustMPH,Humidity,HourlyPrecipIn,Conditions,Clouds,dailyrainin,SoftwareType,DateUTC
2013-04-04 00:01:00,40.6,24.8,-100.00,ENE,74,0.0,1.0,53,0.00,,,0.00,meteohub,2013-04-04 05:01:00,
2013-04-04 00:06:00,40.8,25.0,-100.00,ENE,74,0.0,2.0,53,0.00,,,0.00,meteohub,2013-04-04 05:06:00,
2013-04-04 00:11:00,40.8,25.0,-100.00,ENE,74,0.0,2.0,53,0.00,,,0.00,meteohub,2013-04-04 05:11:00,
2013-04-04 00:16:00,40.6,24.8,-100.00,ENE,74,0.0,2.0,53,0.00,,,0.00,meteohub,2013-04-04 05:16:00,
2013-04-04 00:22:00,40.5,25.2,-100.00,ENE,74,0.0,2.0,54,0.00,,,0.00,meteohub,2013-04-04 05:22:00,
2013-04-04 00:27:00,40.3,25.0,-100.00,ENE,74,0.0,1.0,54,0.00,,,0.00,meteohub,2013-04-04 05:27:00,
2013-04-04 00:32:00,40.3,25.0,-100.00,ENE,74,0.0,1.0,54,0.00,,,0.00,meteohub,2013-04-04 05:32:00,
2013-04-04 00:37:00,39.9,24.6,-100.00,ENE,74,0.0,1.0,54,0.00,,,0.00,meteohub,2013-04-04 05:37:00,
2013-04-04 00:42:00,39.7,25.0,-100.00,ENE,74,0.0,1.0,55,0.00,,,0.00,meteohub,2013-04-04 05:42:00,
2013-04-04 00:47:00,39.6,24.8,-100.00,ENE,74,0.0,1.0,55,0.00,,,0.00,meteohub,2013-04-04 05:47:00,
2013-04-04 00:52:00,39.2,24.8,-100.00,ENE,74,0.0,0.0,56,0.00,,,0.00,meteohub,2013-04-04 05:52:00,
2013-04-04 00:57:00,38.8,25.0,-100.00,ENE,74,0.0,0.0,57,0.00,,,0.00,meteohub,2013-04-04 05:57:00,
2013-04-04 01:02:00,38.7,24.8,-100.00,ENE,74,0.0,0.0,57,0.00,,,0.00,meteohub,2013-04-04 06:02:00,
2013-04-04 01:07:00,38.7,24.8,-100.00,ENE,74,0.0,0.0,57,0.00,,,0.00,meteohub,2013-04-04 06:07:00,
2013-04-04 01:12:00,38.7,24.8,-100.00,ENE,74,0.0,0.0,57,0.00,,,0.00,meteohub,2013-04-04 06:12:00,
2013-04-04 01:17:00,38.5,24.6,-100.00,ENE,74,0.0,0.0,57,0.00,,,0.00,meteohub,2013-04-04 06:17:00,
2013-04-04 01:22:00,38.1,24.6,-100.00,ENE,74,0.0,0.0,58,0.00,,,0.00,meteohub,2013-04-04 06:22:00,
2013-04-04 01:27:00,37.9,25.0,-100.00,ENE,74,0.0,0.0,59,0.00,,,0.00,meteohub,2013-04-04 06:27:00,
2013-04-04 01:32:00,37.6,24.6,-100.00,ENE,74,0.0,0.0,59,0.00,,,0.00,meteohub,2013-04-04 06:32:00,
2013-04-04 01:37:00,37.4,24.4,-100.00,ENE,74,0.0,0.0,59,0.00,,,0.00,meteohub,2013-04-04 06:37:00,
2013-04-04 01:42:00,37.6,24.6,-100.00,ENE,74,0.0,0.0,59,0.00,,,0.00,meteohub,2013-04-04 06:42:00,
2013-04-04 01:47:00,37.8,24.3,-100.00,ENE,74,0.0,0.0,58,0.00,,,0.00,meteohub,2013-04-04 06:47:00,
2013-04-04 01:52:00,37.9,24.4,-100.00,ENE,74,0.0,0.0,58,0.00,,,0.00,meteohub,2013-04-04 06:52:00,
2013-04-04 01:57:00,37.9,24.1,-100.00,ENE,74,0.0,0.0,57,0.00,,,0.00,meteohub,2013-04-04 06:57:00,
2013-04-04 02:02:00,37.9,24.4,-100.00,ENE,74,0.0,0.0,58,0.00,,,0.00,meteohub,2013-04-04 07:02:00,
2013-04-04 02:07:00,37.9,24.4,-100.00,ENE,74,0.0,0.0,58,0.00,,,0.00,meteohub,2013-04-04 07:07:00,
2013-04-04 02:12:00,37.9,24.4,-100.00,ENE,74,0.0,0.0,58,0.00,,,0.00,meteohub,2013-04-04 07:12:00,
2013-04-04 02:17:00,37.9,24.4,-100.00,ENE,74,0.0,0.0,58,0.00,,,0.00,meteohub,2013-04-04 07:17:00,
2013-04-04 02:22:00,38.1,24.6,-100.00,ENE,74,0.0,0.0,58,0.00,,,0.00,meteohub,2013-04-04 07:22:00,
2013-04-04 02:27:00,38.1,24.6,-100.00,ENE,74,0.0,0.0,58,0.00,,,0.00,meteohub,2013-04-04 07:27:00,
2013-04-04 02:32:00,38.1,24.6,-100.00,ENE,74,0.0,0.0,58,0.00,,,0.00,meteohub,2013-04-04 07:32:00,
2013-04-04 02:37:00,38.1,24.6,-100.00,ENE,74,0.0,0.0,58,0.00,,,0.00,meteohub,2013-04-04 07:37:00,
2013-04-04 02:42:00,37.9,24.4,-100.00,ENE,74,0.0,0.0,58,0.00,,,0.00,meteohub,2013-04-04 07:42:00,
2013-04-04 02:47:00,37.6,24.6,-100.00,ENE,74,0.0,0.0,59,0.00,,,0.00,meteohub,2013-04-04 07:47:00,
2013-04-04 02:52:00,37.0,24.1,-100.00,ENE,74,0.0,0.0,59,0.00,,,0.00,meteohub,2013-04-04 07:52:00,
2013-04-04 02:57:00,36.7,24.1,-100.00,ENE,74,0.0,0.0,60,0.00,,,0.00,meteohub,2013-04-04 07:57:00,
2013-04-04 03:02:00,36.3,24.1,-100.00,ENE,74,0.0,0.0,61,0.00,,,0.00,meteohub,2013-04-04 08:02:00,
2013-04-04 03:07:00,36.3,24.1,-100.00,ENE,74,0.0,0.0,61,0.00,,,0.00,meteohub,2013-04-04 08:07:00,
2013-04-04 03:12:00,36.5,24.3,-100.00,ENE,74,0.0,0.0,61,0.00,,,0.00,meteohub,2013-04-04 08:12:00,
2013-04-04 03:17:00,36.9,24.6,-100.00,ENE,74,0.0,0.0,61,0.00,,,0.00,meteohub,2013-04-04 08:17:00,
2013-04-04 03:22:00,36.9,24.3,-100.00,ENE,74,0.0,0.0,60,0.00,,,0.00,meteohub,2013-04-04 08:22:00,
2013-04-04 03:27:00,36.9,24.3,-100.00,ENE,74,0.0,0.0,60,0.00,,,0.00,meteohub,2013-04-04 08:27:00,
2013-04-04 03:32:00,36.3,24.1,-100.00,ENE,74,0.0,0.0,61,0.00,,,0.00,meteohub,2013-04-04 08:32:00,
2013-04-04 03:38:00,35.6,24.3,-100.00,ENE,74,0.0,0.0,63,0.00,,,0.00,meteohub,2013-04-04 08:38:00,
2013-04-04 03:43:00,35.2,24.3,-100.00,ENE,74,0.0,0.0,64,0.00,,,0.00,meteohub,2013-04-04 08:43:00,
2013-04-04 03:48:00,35.1,24.1,-100.00,ENE,74,0.0,0.0,64,0.00,,,0.00,meteohub,2013-04-04 08:48:00,
2013-04-04 03:53:00,35.1,24.1,-100.00,ENE,74,0.0,0.0,64,0.00,,,0.00,meteohub,2013-04-04 08:53:00,
2013-04-04 03:58:00,34.9,23.9,-100.00,ENE,74,0.0,0.0,64,0.00,,,0.00,meteohub,2013-04-04 08:58:00,
2013-04-04 04:03:00,34.5,23.9,-100.00,ENE,74,0.0,0.0,65,0.00,,,0.00,meteohub,2013-04-04 09:03:00,
2013-04-04 04:08:00,34.3,23.7,-100.00,ENE,74,0.0,0.0,65,0.00,,,0.00,meteohub,2013-04-04 09:08:00,
2013-04-04 04:13:00,34.2,24.1,-100.00,ENE,74,0.0,0.0,66,0.00,,,0.00,meteohub,2013-04-04 09:13:00,
2013-04-04 04:18:00,34.2,24.1,-100.00,ENE,74,0.0,0.0,66,0.00,,,0.00,meteohub,2013-04-04 09:18:00,
2013-04-04 04:23:00,34.2,24.1,-100.00,ENE,74,0.0,0.0,66,0.00,,,0.00,meteohub,2013-04-04 09:23:00,
2013-04-04 04:28:00,34.2,24.1,-100.00,ENE,74,0.0,0.0,66,0.00,,,0.00,meteohub,2013-04-04 09:28:00,
2013-04-04 04:33:00,34.0,23.9,-100.00,ENE,74,0.0,0.0,66,0.00,,,0.00,meteohub,2013-04-04 09:33:00,
2013-04-04 04:38:00,34.3,24.1,-100.00,ENE,74,0.0,0.0,66,0.00,,,0.00,meteohub,2013-04-04 09:38:00,
2013-04-04 04:43:00,34.9,24.3,-100.00,ENE,74,0.0,0.0,65,0.00,,,0.00,meteohub,2013-04-04 09:43:00,
2013-04-04 04:48:00,35.1,24.1,-100.00,ENE,74,0.0,0.0,64,0.00,,,0.00,meteohub,2013-04-04 09:48:00,
2013-04-04 04:53:00,35.2,24.3,-100.00,ENE,74,0.0,1.0,64,0.00,,,0.00,meteohub,2013-04-04 09:53:00,
2013-04-04 04:58:00,35.2,24.3,-100.00,ENE,74,0.0,1.0,64,0.00,,,0.00,meteohub,2013-04-04 09:58:00,
2013-04-04 05:03:00,35.4,24.4,-100.00,ENE,74,0.0,0.0,64,0.00,,,0.00,meteohub,2013-04-04 10:03:00,
2013-04-04 05:08:00,35.8,24.8,-100.00,ENE,74,0.0,0.0,64,0.00,,,0.00,meteohub,2013-04-04 10:08:00,
2013-04-04 05:13:00,36.0,24.6,-100.00,ENE,74,0.0,0.0,63,0.00,,,0.00,meteohub,2013-04-04 10:13:00,
2013-04-04 05:18:00,36.1,24.8,-100.00,ENE,74,0.0,0.0,63,0.00,,,0.00,meteohub,2013-04-04 10:18:00,
2013-04-04 05:23:00,36.1,24.8,-100.00,ENE,74,0.0,1.0,63,0.00,,,0.00,meteohub,2013-04-04 10:23:00,
2013-04-04 05:28:00,36.3,25.0,-100.00,ENE,74,0.0,1.0,63,0.00,,,0.00,meteohub,2013-04-04 10:28:00,
2013-04-04 05:33:00,36.5,25.2,-100.00,ENE,74,0.0,1.0,63,0.00,,,0.00,meteohub,2013-04-04 10:33:00,
2013-04-04 05:38:00,36.5,24.8,-100.00,ENE,74,0.0,0.0,62,0.00,,,0.00,meteohub,2013-04-04 10:38:00,
2013-04-04 05:43:00,36.5,24.8,-100.00,ENE,74,0.0,0.0,62,0.00,,,0.00,meteohub,2013-04-04 10:43:00,
2013-04-04 05:48:00,36.3,25.0,-100.00,ENE,74,0.0,1.0,63,0.00,,,0.00,meteohub,2013-04-04 10:48:00,
2013-04-04 05:53:00,36.1,24.8,-100.00,ENE,74,0.0,1.0,63,0.00,,,0.00,meteohub,2013-04-04 10:53:00,
2013-04-04 05:58:00,36.3,25.0,-100.00,ENE,74,0.0,1.0,63,0.00,,,0.00,meteohub,2013-04-04 10:58:00,
2013-04-04 06:03:00,36.1,24.8,-100.00,ENE,74,0.0,1.0,63,0.00,,,0.00,meteohub,2013-04-04 11:03:00,
2013-04-04 06:08:00,36.1,24.8,-100.00,ENE,74,0.0,1.0,63,0.00,,,0.00,meteohub,2013-04-04 11:08:00,
2013-04-04 06:13:00,36.0,24.6,-100.00,ENE,74,0.0,1.0,63,0.00,,,0.00,meteohub,2013-04-04 11:13:00,
2013-04-04 06:18:00,36.0,25.0,-100.00,ENE,74,0.0,1.0,64,0.00,,,0.00,meteohub,2013-04-04 11:18:00,
2013-04-04 06:23:00,36.1,25.2,-100.00,ENE,74,0.0,0.0,64,0.00,,,0.00,meteohub,2013-04-04 11:23:00,
2013-04-04 06:28:00,36.1,25.2,-100.00,ENE,74,0.0,0.0,64,0.00,,,0.00,meteohub,2013-04-04 11:28:00,
2013-04-04 06:33:00,36.1,24.8,-100.00,ENE,74,0.0,2.0,63,0.00,,,0.00,meteohub,2013-04-04 11:33:00,
2013-04-04 06:38:00,36.1,25.2,-100.00,ENE,74,0.0,2.0,64,0.00,,,0.00,meteohub,2013-04-04 11:38:00,
2013-04-04 06:43:00,36.1,25.2,-100.00,ENE,74,0.0,0.0,64,0.00,,,0.00,meteohub,2013-04-04 11:43:00,
2013-04-04 06:48:00,36.1,25.2,-100.00,ENE,74,0.0,0.0,64,0.00,,,0.00,meteohub,2013-04-04 11:48:00,
2013-04-04 06:53:00,36.1,24.8,-100.00,ENE,74,0.0,0.0,63,0.00,,,0.00,meteohub,2013-04-04 11:53:00,
2013-04-04 06:58:00,36.1,24.8,-100.00,ENE,74,0.0,0.0,63,0.00,,,0.00,meteohub,2013-04-04 11:58:00,
2013-04-04 07:03:00,36.3,25.0,-100.00,ENE,74,0.0,0.0,63,0.00,,,0.00,meteohub,2013-04-04 12:03:00,
2013-04-04 07:08:00,36.5,25.2,-100.00,ENE,74,0.0,0.0,63,0.00,,,0.00,meteohub,2013-04-04 12:08:00,
2013-04-04 07:13:00,36.5,25.2,-100.00,ENE,74,0.0,1.0,63,0.00,,,0.00,meteohub,2013-04-04 12:13:00,
2013-04-04 07:18:00,36.7,25.3,-100.00,ENE,74,0.0,1.0,63,0.00,,,0.00,meteohub,2013-04-04 12:18:00,
2013-04-04 07:23:00,36.7,25.3,-100.00,ENE,74,0.0,1.0,63,0.00,,,0.00,meteohub,2013-04-04 12:23:00,
2013-04-04 07:28:00,36.9,25.5,-100.00,ENE,74,0.0,0.0,63,0.00,,,0.00,meteohub,2013-04-04 12:28:00,
2013-04-04 07:33:00,37.0,25.2,-100.00,ENE,74,0.0,0.0,62,0.00,,,0.00,meteohub,2013-04-04 12:33:00,
2013-04-04 07:39:00,37.2,25.3,-100.00,ENE,74,0.0,1.0,62,0.00,,,0.00,meteohub,2013-04-04 12:39:00,
2013-04-04 07:44:00,37.2,25.3,-100.00,ENE,74,0.0,2.0,62,0.00,,,0.00,meteohub,2013-04-04 12:44:00,
2013-04-04 07:49:00,37.4,25.5,-100.00,ENE,74,0.0,2.0,62,0.00,,,0.00,meteohub,2013-04-04 12:49:00,
2013-04-04 07:54:00,37.9,25.7,-100.00,ENE,74,0.0,2.0,61,0.00,,,0.00,meteohub,2013-04-04 12:54:00,
2013-04-04 07:59:00,38.5,25.9,-100.00,ENE,74,0.0,2.0,60,0.00,,,0.00,meteohub,2013-04-04 12:59:00,
2013-04-04 08:04:00,39.0,25.9,-100.00,ENE,74,0.0,2.0,59,0.00,,,0.00,meteohub,2013-04-04 13:04:00,
2013-04-04 08:09:00,39.7,26.6,-100.00,ENE,74,0.0,0.0,59,0.00,,,0.00,meteohub,2013-04-04 13:09:00,
2013-04-04 08:14:00,40.5,26.8,-100.00,ENE,74,0.0,0.0,58,0.00,,,0.00,meteohub,2013-04-04 13:14:00,
2013-04-04 08:19:00,41.0,27.0,-100.00,ENE,74,0.0,1.0,57,0.00,,,0.00,meteohub,2013-04-04 13:19:00,
2013-04-04 08:24:00,41.9,27.3,-100.00,ENE,74,0.0,1.0,56,0.00,,,0.00,meteohub,2013-04-04 13:24:00,
2013-04-04 08:30:00,42.6,27.1,-100.00,ENE,74,0.0,1.0,54,0.00,,,0.00,meteohub,2013-04-04 13:30:00,
2013-04-04 08:35:00,43.3,27.3,-100.00,ENE,74,0.0,1.0,53,0.00,,,0.00,meteohub,2013-04-04 13:35:00,
2013-04-04 08:40:00,44.1,28.0,-100.00,ENE,74,0.0,1.0,53,0.00,,,0.00,meteohub,2013-04-04 13:40:00,
2013-04-04 08:45:00,45.0,27.5,-100.00,ENE,74,1.0,1.0,50,0.00,,,0.00,meteohub,2013-04-04 13:45:00,
2013-04-04 08:50:00,45.1,27.7,-100.00,ENE,74,1.0,2.0,50,0.00,,,0.00,meteohub,2013-04-04 13:50:00,
2013-04-04 08:55:00,45.7,27.1,-100.00,ENE,74,0.0,2.0,48,0.00,,,0.00,meteohub,2013-04-04 13:55:00,
2013-04-04 09:00:00,46.6,27.9,-100.00,ENE,74,0.0,2.0,48,0.00,,,0.00,meteohub,2013-04-04 14:00:00,
2013-04-04 09:05:00,46.9,27.7,-100.00,ENE,74,0.0,1.0,47,0.00,,,0.00,meteohub,2013-04-04 14:05:00,
2013-04-04 09:10:00,48.2,28.9,-100.00,ENE,74,0.0,2.0,47,0.00,,,0.00,meteohub,2013-04-04 14:10:00,
2013-04-04 09:15:00,49.5,28.9,-100.00,ENE,75,0.0,2.0,45,0.00,,,0.00,meteohub,2013-04-04 14:15:00,
2013-04-04 09:20:00,50.0,27.9,-100.00,ENE,75,0.0,4.0,42,0.00,,,0.00,meteohub,2013-04-04 14:20:00,
2013-04-04 09:25:00,50.4,28.2,-100.00,ENE,75,0.0,4.0,42,0.00,,,0.00,meteohub,2013-04-04 14:25:00,
2013-04-04 09:30:00,51.1,29.3,-100.00,ENE,75,0.0,4.0,43,0.00,,,0.00,meteohub,2013-04-04 14:30:00,
2013-04-04 09:35:00,51.6,28.8,-100.00,ENE,75,0.0,2.0,41,0.00,,,0.00,meteohub,2013-04-04 14:35:00,
2013-04-04 09:40:00,52.0,28.9,-100.00,ENE,75,0.0,2.0,41,0.00,,,0.00,meteohub,2013-04-04 14:40:00,
2013-04-04 09:45:00,51.1,28.2,-100.00,East,80,0.0,3.0,41,0.00,,,0.00,meteohub,2013-04-04 14:45:00,
2013-04-04 09:50:00,51.3,28.4,-100.00,East,80,0.0,3.0,41,0.00,,,0.00,meteohub,2013-04-04 14:50:00,
2013-04-04 09:55:00,52.0,28.4,-100.00,ESE,102,0.0,3.0,40,0.00,,,0.00,meteohub,2013-04-04 14:55:00,
2013-04-04 10:00:00,52.9,28.0,-100.00,ESE,103,0.0,2.0,38,0.00,,,0.00,meteohub,2013-04-04 15:00:00,
2013-04-04 10:05:00,52.9,28.0,-100.00,ESE,103,0.0,4.0,38,0.00,,,0.00,meteohub,2013-04-04 15:05:00,
2013-04-04 10:10:00,52.9,28.0,-100.00,ESE,104,0.0,4.0,38,0.00,,,0.00,meteohub,2013-04-04 15:10:00,
2013-04-04 10:15:00,54.0,28.2,-100.00,South,175,0.0,5.0,37,0.00,,,0.00,meteohub,2013-04-04 15:15:00,
2013-04-04 10:20:00,54.7,27.5,-100.00,South,177,0.0,5.0,35,0.00,,,0.00,meteohub,2013-04-04 15:20:00,
2013-04-04 10:25:00,55.0,28.6,-100.00,SSE,168,1.0,6.0,36,0.00,,,0.00,meteohub,2013-04-04 15:25:00,
2013-04-04 10:30:00,55.8,28.6,-100.00,South,169,0.0,6.0,35,0.00,,,0.00,meteohub,2013-04-04 15:30:00,
2013-04-04 10:35:00,56.5,28.4,-100.00,South,172,0.0,3.0,34,0.00,,,0.00,meteohub,2013-04-04 15:35:00,
2013-04-04 10:40:00,56.7,30.0,-100.00,SSW,198,1.0,7.0,36,0.00,,,0.00,meteohub,2013-04-04 15:40:00,
2013-04-04 10:45:00,56.7,28.6,-100.00,WSW,250,0.0,7.0,34,0.00,,,0.00,meteohub,2013-04-04 15:45:00,
2013-04-04 10:50:00,57.0,28.2,-100.00,WSW,239,0.0,7.0,33,0.00,,,0.00,meteohub,2013-04-04 15:50:00,
2013-04-04 10:55:00,57.6,28.6,-100.00,WSW,238,1.0,5.0,33,0.00,,,0.00,meteohub,2013-04-04 15:55:00,
2013-04-04 11:00:00,58.3,28.6,-100.00,WSW,244,0.0,5.0,32,0.00,,,0.00,meteohub,2013-04-04 16:00:00,
2013-04-04 11:05:00,57.6,28.6,-100.00,SSW,200,0.0,5.0,33,0.00,,,0.00,meteohub,2013-04-04 16:05:00,
2013-04-04 11:10:00,57.0,28.9,-100.00,SSW,201,0.0,5.0,34,0.00,,,0.00,meteohub,2013-04-04 16:10:00,
2013-04-04 11:15:00,58.5,28.8,-100.00,WNW,296,2.0,6.0,32,0.00,,,0.00,meteohub,2013-04-04 16:15:00,
2013-04-04 11:20:00,59.4,28.8,-100.00,West,259,0.0,6.0,31,0.00,,,0.00,meteohub,2013-04-04 16:20:00,
2013-04-04 11:25:00,59.5,28.9,-100.00,NW,307,4.0,10.0,31,0.00,,,0.00,meteohub,2013-04-04 16:25:00,
2013-04-04 11:30:00,58.5,27.9,-100.00,WNW,302,3.0,10.0,31,0.00,,,0.00,meteohub,2013-04-04 16:30:00,
2013-04-04 11:35:00,56.8,28.0,-100.00,NNE,30,0.0,10.0,33,0.00,,,0.00,meteohub,2013-04-04 16:35:00,
2013-04-04 11:41:00,56.5,28.4,-100.00,WNW,302,5.0,6.0,34,0.00,,,0.00,meteohub,2013-04-04 16:41:00,
2013-04-04 11:46:00,57.6,28.6,-100.00,WNW,296,2.0,11.0,33,0.00,,,0.00,meteohub,2013-04-04 16:46:00,
2013-04-04 11:51:00,57.7,28.8,-100.00,WNW,292,3.0,11.0,33,0.00,,,0.00,meteohub,2013-04-04 16:51:00,
2013-04-04 11:56:00,57.7,28.8,-100.00,West,270,4.0,11.0,33,0.00,,,0.00,meteohub,2013-04-04 16:56:00,
2013-04-04 12:01:00,58.8,28.9,-100.00,West,269,3.0,10.0,32,0.00,,,0.00,meteohub,2013-04-04 17:01:00,
2013-04-04 12:06:00,59.9,29.1,-100.00,West,269,0.0,8.0,31,0.00,,,0.00,meteohub,2013-04-04 17:06:00,
2013-04-04 12:11:00,60.4,29.7,-100.00,SW,223,2.0,8.0,31,0.00,,,0.00,meteohub,2013-04-04 17:11:00,
2013-04-04 12:16:00,61.0,30.2,-100.00,NW,316,6.0,8.0,31,0.00,,,0.00,meteohub,2013-04-04 17:16:00,
2013-04-04 12:21:00,61.5,29.8,-100.00,West,268,2.0,9.0,30,0.00,,,0.00,meteohub,2013-04-04 17:21:00,
2013-04-04 12:26:00,60.1,30.2,-100.00,ENE,77,1.0,9.0,32,0.00,,,0.00,meteohub,2013-04-04 17:26:00,
2013-04-04 12:31:00,58.5,28.8,-100.00,East,90,0.0,9.0,32,0.00,,,0.00,meteohub,2013-04-04 17:31:00,
2013-04-04 12:36:00,59.0,29.1,-100.00,WSW,257,0.0,9.0,32,0.00,,,0.00,meteohub,2013-04-04 17:36:00,
2013-04-04 12:41:00,60.6,28.9,-100.00,West,268,0.0,7.0,30,0.00,,,0.00,meteohub,2013-04-04 17:41:00,
2013-04-04 12:46:00,61.9,29.3,-100.00,West,268,0.0,6.0,29,0.00,,,0.00,meteohub,2013-04-04 17:46:00,
2013-04-04 12:51:00,60.1,29.3,-100.00,NW,321,4.0,4.0,31,0.00,,,0.00,meteohub,2013-04-04 17:51:00,
2013-04-04 12:56:00,59.7,28.9,-100.00,NW,312,0.0,9.0,31,0.00,,,0.00,meteohub,2013-04-04 17:56:00,
2013-04-04 13:01:00,59.5,29.7,-100.00,West,275,0.0,9.0,32,0.00,,,0.00,meteohub,2013-04-04 18:01:00,
2013-04-04 13:06:00,61.2,30.2,-100.00,NW,324,1.0,9.0,31,0.00,,,0.00,meteohub,2013-04-04 18:06:00,
2013-04-04 13:11:00,61.3,30.4,-100.00,NW,304,0.0,7.0,31,0.00,,,0.00,meteohub,2013-04-04 18:11:00,
2013-04-04 13:16:00,61.3,29.7,-100.00,WNW,303,0.0,7.0,30,0.00,,,0.00,meteohub,2013-04-04 18:16:00,
2013-04-04 13:21:00,61.3,30.4,-100.00,WNW,302,0.0,7.0,31,0.00,,,0.00,meteohub,2013-04-04 18:21:00,
2013-04-04 13:26:00,61.3,31.3,-100.00,WNW,302,0.0,1.0,32,0.00,,,0.00,meteohub,2013-04-04 18:26:00,
2013-04-04 13:31:00,61.9,31.6,-100.00,WNW,302,0.0,1.0,32,0.00,,,0.00,meteohub,2013-04-04 18:31:00,
2013-04-04 13:36:00,60.6,29.8,-100.00,WNW,299,0.0,9.0,31,0.00,,,0.00,meteohub,2013-04-04 18:36:00,
2013-04-04 13:41:00,59.7,29.8,-100.00,NW,317,0.0,9.0,32,0.00,,,0.00,meteohub,2013-04-04 18:41:00,
2013-04-04 13:46:00,59.2,28.6,-100.00,NE,53,0.0,6.0,31,0.00,,,0.00,meteohub,2013-04-04 18:46:00,
2013-04-04 13:51:00,59.5,29.7,-100.00,WNW,284,0.0,5.0,32,0.00,,,0.00,meteohub,2013-04-04 18:51:00,
2013-04-04 13:56:00,60.8,30.0,-100.00,WNW,286,0.0,4.0,31,0.00,,,0.00,meteohub,2013-04-04 18:56:00,
2013-04-04 14:02:00,61.3,30.4,-100.00,WNW,303,0.0,4.0,31,0.00,,,0.00,meteohub,2013-04-04 19:02:00,
2013-04-04 14:07:00,62.2,30.4,-100.00,WSW,246,4.0,7.0,30,0.00,,,0.00,meteohub,2013-04-04 19:07:00,
2013-04-04 14:12:00,62.1,31.1,-100.00,WNW,298,4.0,10.0,31,0.00,,,0.00,meteohub,2013-04-04 19:12:00,
2013-04-04 14:17:00,62.1,30.2,-100.00,WNW,301,4.0,10.0,30,0.00,,,0.00,meteohub,2013-04-04 19:17:00,
2013-04-04 14:22:00,61.3,30.4,-100.00,WSW,258,0.0,10.0,31,0.00,,,0.00,meteohub,2013-04-04 19:22:00,
2013-04-04 14:27:00,60.8,30.7,-100.00,ESE,109,0.0,6.0,32,0.00,,,0.00,meteohub,2013-04-04 19:27:00,
2013-04-04 14:32:00,60.6,30.6,-100.00,ESE,110,1.0,6.0,32,0.00,,,0.00,meteohub,2013-04-04 19:32:00,
2013-04-04 14:37:00,62.2,31.3,-100.00,WNW,291,0.0,3.0,31,0.00,,,0.00,meteohub,2013-04-04 19:37:00,
2013-04-04 14:42:00,63.1,31.3,-100.00,NW,314,4.0,9.0,30,0.00,,,0.00,meteohub,2013-04-04 19:42:00,
2013-04-04 14:47:00,62.1,30.2,-100.00,NW,304,0.0,9.0,30,0.00,,,0.00,meteohub,2013-04-04 19:47:00,
2013-04-04 14:52:00,61.5,31.5,-100.00,NW,304,6.0,9.0,32,0.00,,,0.00,meteohub,2013-04-04 19:52:00,
2013-04-04 14:57:00,61.7,30.0,-100.00,West,280,0.0,10.0,30,0.00,,,0.00,meteohub,2013-04-04 19:57:00,
2013-04-04 15:02:00,62.1,31.1,-100.00,NW,307,6.0,10.0,31,0.00,,,0.00,meteohub,2013-04-04 20:02:00,
2013-04-04 15:07:00,62.2,29.7,-100.00,West,273,5.0,10.0,29,0.00,,,0.00,meteohub,2013-04-04 20:07:00,
2013-04-04 15:12:00,61.3,30.4,-100.00,WNW,303,3.0,9.0,31,0.00,,,0.00,meteohub,2013-04-04 20:12:00,
2013-04-04 15:17:00,61.3,29.7,-100.00,NW,314,2.0,9.0,30,0.00,,,0.00,meteohub,2013-04-04 20:17:00,
2013-04-04 15:22:00,61.5,29.8,-100.00,West,275,2.0,7.0,30,0.00,,,0.00,meteohub,2013-04-04 20:22:00,
2013-04-04 15:27:00,62.2,29.7,-100.00,West,277,3.0,9.0,29,0.00,,,0.00,meteohub,2013-04-04 20:27:00,
2013-04-04 15:32:00,61.9,29.3,-100.00,NW,306,1.0,14.0,29,0.00,,,0.00,meteohub,2013-04-04 20:32:00,
2013-04-04 15:37:00,61.3,28.8,-100.00,NW,309,4.0,14.0,29,0.00,,,0.00,meteohub,2013-04-04 20:37:00,
2013-04-04 15:42:00,60.6,28.2,-100.00,NW,306,0.0,7.0,29,0.00,,,0.00,meteohub,2013-04-04 20:42:00,
2013-04-04 15:47:00,60.6,29.8,-100.00,NW,319,2.0,7.0,31,0.00,,,0.00,meteohub,2013-04-04 20:47:00,
2013-04-04 15:52:00,60.6,30.6,-100.00,NW,316,0.0,9.0,32,0.00,,,0.00,meteohub,2013-04-04 20:52:00,
2013-04-04 15:57:00,61.5,30.6,-100.00,WNW,288,2.0,9.0,31,0.00,,,0.00,meteohub,2013-04-04 20:57:00,
2013-04-04 16:02:00,61.3,30.4,-100.00,NNW,329,2.0,9.0,31,0.00,,,0.00,meteohub,2013-04-04 21:02:00,
2013-04-04 16:07:00,60.8,30.0,-100.00,NNE,21,1.0,7.0,31,0.00,,,0.00,meteohub,2013-04-04 21:07:00,
2013-04-04 16:12:00,60.4,29.7,-100.00,NW,310,0.0,7.0,31,0.00,,,0.00,meteohub,2013-04-04 21:12:00,
2013-04-04 16:17:00,60.4,30.4,-100.00,WNW,290,1.0,7.0,32,0.00,,,0.00,meteohub,2013-04-04 21:17:00,
2013-04-04 16:22:00,61.2,31.1,-100.00,WNW,287,3.0,6.0,32,0.00,,,0.00,meteohub,2013-04-04 21:22:00,
2013-04-04 16:27:00,62.1,31.1,-100.00,West,277,2.0,7.0,31,0.00,,,0.00,meteohub,2013-04-04 21:27:00,
2013-04-04 16:32:00,62.2,30.4,-100.00,SW,227,0.0,7.0,30,0.00,,,0.00,meteohub,2013-04-04 21:32:00,
2013-04-04 16:37:00,62.4,30.6,-100.00,SW,227,0.0,7.0,30,0.00,,,0.00,meteohub,2013-04-04 21:37:00,
2013-04-04 16:42:00,62.6,31.5,-100.00,West,274,1.0,7.0,31,0.00,,,0.00,meteohub,2013-04-04 21:42:00,
2013-04-04 16:47:00,62.2,31.3,-100.00,West,267,5.0,5.0,31,0.00,,,0.00,meteohub,2013-04-04 21:47:00,
2013-04-04 16:52:00,61.9,30.9,-100.00,WSW,237,0.0,9.0,31,0.00,,,0.00,meteohub,2013-04-04 21:52:00,
2013-04-04 16:57:00,61.5,30.6,-100.00,WSW,242,0.0,9.0,31,0.00,,,0.00,meteohub,2013-04-04 21:57:00,
2013-04-04 17:02:00,61.7,30.7,-100.00,WSW,242,0.0,9.0,31,0.00,,,0.00,meteohub,2013-04-04 22:02:00,
2013-04-04 17:08:00,61.5,31.5,-100.00,SSW,198,0.0,5.0,32,0.00,,,0.00,meteohub,2013-04-04 22:08:00,
2013-04-04 17:13:00,61.9,30.9,-100.00,WSW,253,0.0,4.0,31,0.00,,,0.00,meteohub,2013-04-04 22:13:00,
2013-04-04 17:18:00,61.9,31.6,-100.00,SSW,211,6.0,6.0,32,0.00,,,0.00,meteohub,2013-04-04 22:18:00,
2013-04-04 17:23:00,61.2,31.1,-100.00,SSW,209,0.0,5.0,32,0.00,,,0.00,meteohub,2013-04-04 22:23:00,
2013-04-04 17:28:00,61.2,31.1,-100.00,SW,219,1.0,9.0,32,0.00,,,0.00,meteohub,2013-04-04 22:28:00,
2013-04-04 17:33:00,61.5,30.6,-100.00,SW,218,3.0,9.0,31,0.00,,,0.00,meteohub,2013-04-04 22:33:00,
2013-04-04 17:38:00,61.0,31.6,-100.00,SSW,209,0.0,6.0,33,0.00,,,0.00,meteohub,2013-04-04 22:38:00,
2013-04-04 17:43:00,60.6,30.6,-100.00,SSW,210,0.0,9.0,32,0.00,,,0.00,meteohub,2013-04-04 22:43:00,
2013-04-04 17:48:00,60.8,30.7,-100.00,SW,234,0.0,9.0,32,0.00,,,0.00,meteohub,2013-04-04 22:48:00,
2013-04-04 17:53:00,61.0,30.9,-100.00,WSW,249,0.0,9.0,32,0.00,,,0.00,meteohub,2013-04-04 22:53:00,
2013-04-04 17:58:00,61.2,31.1,-100.00,West,277,0.0,7.0,32,0.00,,,0.00,meteohub,2013-04-04 22:58:00,
2013-04-04 18:03:00,61.2,31.1,-100.00,West,267,0.0,7.0,32,0.00,,,0.00,meteohub,2013-04-04 23:03:00,
2013-04-04 18:08:00,61.0,30.9,-100.00,WSW,244,0.0,7.0,32,0.00,,,0.00,meteohub,2013-04-04 23:08:00,
2013-04-04 18:13:00,60.8,31.5,-100.00,WSW,252,0.0,7.0,33,0.00,,,0.00,meteohub,2013-04-04 23:13:00,
2013-04-04 18:18:00,60.6,30.6,-100.00,West,266,0.0,7.0,32,0.00,,,0.00,meteohub,2013-04-04 23:18:00,
2013-04-04 18:23:00,60.4,30.4,-100.00,West,267,0.0,5.0,32,0.00,,,0.00,meteohub,2013-04-04 23:23:00,
2013-04-04 18:28:00,60.3,31.1,-100.00,West,263,0.0,5.0,33,0.00,,,0.00,meteohub,2013-04-04 23:28:00,
2013-04-04 18:33:00,60.1,30.9,-100.00,WSW,242,1.0,5.0,33,0.00,,,0.00,meteohub,2013-04-04 23:33:00,
2013-04-04 18:38:00,59.7,30.6,-100.00,SW,229,0.0,3.0,33,0.00,,,0.00,meteohub,2013-04-04 23:38:00,
2013-04-04 18:43:00,59.5,30.4,-100.00,SW,230,1.0,3.0,33,0.00,,,0.00,meteohub,2013-04-04 23:43:00,
2013-04-04 18:48:00,59.5,31.8,-100.00,WSW,257,0.0,3.0,35,0.00,,,0.00,meteohub,2013-04-04 23:48:00,
2013-04-04 18:53:00,59.4,30.9,-100.00,WSW,257,0.0,1.0,34,0.00,,,0.00,meteohub,2013-04-04 23:53:00,
2013-04-04 18:58:00,59.0,30.7,-100.00,WNW,288,0.0,2.0,34,0.00,,,0.00,meteohub,2013-04-04 23:58:00,
2013-04-04 19:03:00,58.8,30.6,-100.00,WNW,287,0.0,2.0,34,0.00,,,0.00,meteohub,2013-04-05 00:03:00,
2013-04-04 19:08:00,58.5,30.9,-100.00,WNW,286,0.0,2.0,35,0.00,,,0.00,meteohub,2013-04-05 00:08:00,
2013-04-04 19:13:00,57.9,30.4,-100.00,WNW,286,0.0,1.0,35,0.00,,,0.00,meteohub,2013-04-05 00:13:00,
2013-04-04 19:18:00,57.6,30.0,-100.00,WNW,286,0.0,1.0,35,0.00,,,0.00,meteohub,2013-04-05 00:18:00,
2013-04-04 19:23:00,57.0,29.7,-100.00,WNW,287,0.0,1.0,35,0.00,,,0.00,meteohub,2013-04-05 00:23:00,
2013-04-04 19:28:00,56.7,30.0,-100.00,WNW,287,0.0,1.0,36,0.00,,,0.00,meteohub,2013-04-05 00:28:00,
2013-04-04 19:33:00,56.3,29.7,-100.00,WNW,287,0.0,1.0,36,0.00,,,0.00,meteohub,2013-04-05 00:33:00,
2013-04-04 19:38:00,55.9,30.0,-100.00,WNW,287,0.0,1.0,37,0.00,,,0.00,meteohub,2013-04-05 00:38:00,
2013-04-04 19:43:00,55.2,29.5,-100.00,WNW,287,0.0,0.0,37,0.00,,,0.00,meteohub,2013-04-05 00:43:00,
2013-04-04 19:48:00,54.9,29.1,-100.00,WNW,287,0.0,0.0,37,0.00,,,0.00,meteohub,2013-04-05 00:48:00,
2013-04-04 19:53:00,54.9,30.4,-100.00,WNW,287,0.0,0.0,39,0.00,,,0.00,meteohub,2013-04-05 00:53:00,
2013-04-04 19:58:00,54.3,29.8,-100.00,WNW,287,0.0,0.0,39,0.00,,,0.00,meteohub,2013-04-05 00:58:00,
2013-04-04 20:03:00,54.0,30.7,-100.00,WNW,287,0.0,0.0,41,0.00,,,0.00,meteohub,2013-04-05 01:03:00,
2013-04-04 20:08:00,53.2,30.2,-100.00,WNW,287,0.0,0.0,41,0.00,,,0.00,meteohub,2013-04-05 01:08:00,
2013-04-04 20:13:00,52.7,30.2,-100.00,WNW,287,0.0,0.0,42,0.00,,,0.00,meteohub,2013-04-05 01:13:00,
2013-04-04 20:18:00,52.3,30.6,-100.00,WNW,287,0.0,0.0,43,0.00,,,0.00,meteohub,2013-04-05 01:18:00,
2013-04-04 20:23:00,52.0,29.7,-100.00,WNW,287,0.0,0.0,42,0.00,,,0.00,meteohub,2013-04-05 01:23:00,
2013-04-04 20:28:00,51.8,30.0,-100.00,WNW,287,0.0,0.0,43,0.00,,,0.00,meteohub,2013-04-05 01:28:00,
2013-04-04 20:33:00,51.6,29.8,-100.00,WNW,287,0.0,0.0,43,0.00,,,0.00,meteohub,2013-04-05 01:33:00,
2013-04-04 20:38:00,51.4,29.7,-100.00,WNW,287,0.0,0.0,43,0.00,,,0.00,meteohub,2013-04-05 01:38:00,
2013-04-04 20:43:00,51.1,29.8,-100.00,WNW,287,0.0,0.0,44,0.00,,,0.00,meteohub,2013-04-05 01:43:00,
2013-04-04 20:48:00,50.7,30.2,-100.00,WNW,287,0.0,0.0,45,0.00,,,0.00,meteohub,2013-04-05 01:48:00,
2013-04-04 20:53:00,50.2,29.1,-100.00,WNW,287,0.0,0.0,44,0.00,,,0.00,meteohub,2013-04-05 01:53:00,
2013-04-04 20:58:00,49.6,29.1,-100.00,WNW,287,0.0,0.0,45,0.00,,,0.00,meteohub,2013-04-05 01:58:00,
2013-04-04 21:03:00,49.3,29.3,-100.00,WNW,287,0.0,0.0,46,0.00,,,0.00,meteohub,2013-04-05 02:03:00,
2013-04-04 21:08:00,48.7,28.9,-100.00,WNW,287,0.0,0.0,46,0.00,,,0.00,meteohub,2013-04-05 02:08:00,
2013-04-04 21:13:00,48.4,29.1,-100.00,WNW,287,0.0,0.0,47,0.00,,,0.00,meteohub,2013-04-05 02:13:00,
2013-04-04 21:18:00,48.6,29.3,-100.00,WNW,287,0.0,0.0,47,0.00,,,0.00,meteohub,2013-04-05 02:18:00,
2013-04-04 21:23:00,48.6,29.3,-100.00,WNW,287,0.0,0.0,47,0.00,,,0.00,meteohub,2013-04-05 02:23:00,
2013-04-04 21:28:00,48.7,28.9,-100.00,WNW,287,0.0,0.0,46,0.00,,,0.00,meteohub,2013-04-05 02:28:00,
2013-04-04 21:33:00,48.7,29.8,-100.00,WNW,287,0.0,0.0,48,0.00,,,0.00,meteohub,2013-04-05 02:33:00,
2013-04-04 21:38:00,48.6,29.3,-100.00,WNW,287,0.0,0.0,47,0.00,,,0.00,meteohub,2013-04-05 02:38:00,
2013-04-04 21:44:00,48.2,28.9,-100.00,WNW,287,0.0,0.0,47,0.00,,,0.00,meteohub,2013-04-05 02:44:00,
2013-04-04 21:49:00,48.0,28.8,-100.00,WNW,287,0.0,0.0,47,0.00,,,0.00,meteohub,2013-04-05 02:49:00,
2013-04-04 21:54:00,47.8,29.1,-100.00,WNW,287,0.0,0.0,48,0.00,,,0.00,meteohub,2013-04-05 02:54:00,
2013-04-04 21:59:00,47.7,28.9,-100.00,WNW,287,0.0,0.0,48,0.00,,,0.00,meteohub,2013-04-05 02:59:00,
2013-04-04 22:04:00,47.8,29.1,-100.00,WNW,287,0.0,0.0,48,0.00,,,0.00,meteohub,2013-04-05 03:04:00,
2013-04-04 22:09:00,48.0,29.3,-100.00,WNW,287,0.0,0.0,48,0.00,,,0.00,meteohub,2013-04-05 03:09:00,
2013-04-04 22:14:00,47.8,29.1,-100.00,WNW,287,0.0,0.0,48,0.00,,,0.00,meteohub,2013-04-05 03:14:00,
2013-04-04 22:19:00,47.8,28.6,-100.00,WNW,287,0.0,0.0,47,0.00,,,0.00,meteohub,2013-04-05 03:19:00,
2013-04-04 22:24:00,48.0,28.8,-100.00,WNW,287,0.0,0.0,47,0.00,,,0.00,meteohub,2013-04-05 03:24:00,
2013-04-04 22:29:00,48.0,28.8,-100.00,WNW,287,0.0,0.0,47,0.00,,,0.00,meteohub,2013-04-05 03:29:00,
2013-04-04 22:34:00,48.2,28.9,-100.00,WNW,287,0.0,0.0,47,0.00,,,0.00,meteohub,2013-04-05 03:34:00,
2013-04-04 22:39:00,48.0,28.8,-100.00,WNW,287,0.0,0.0,47,0.00,,,0.00,meteohub,2013-04-05 03:39:00,
2013-04-04 22:44:00,48.0,29.3,-100.00,WNW,287,0.0,0.0,48,0.00,,,0.00,meteohub,2013-04-05 03:44:00,
2013-04-04 22:49:00,48.0,29.3,-100.00,WNW,287,0.0,1.0,48,0.00,,,0.00,meteohub,2013-04-05 03:49:00,
2013-04-04 22:54:00,48.0,29.3,-100.00,WNW,287,0.0,1.0,48,0.00,,,0.00,meteohub,2013-04-05 03:54:00,
2013-04-04 22:59:00,48.0,29.3,-100.00,WNW,287,0.0,1.0,48,0.00,,,0.00,meteohub,2013-04-05 03:59:00,
2013-04-04 23:00:00,48.0,29.3,-100.00,WNW,287,0.0,1.0,48,0.00,,,0.00,meteohub,2013-04-05 04:00:00,
2013-04-04 23:01:00,47.8,29.1,-100.00,WNW,287,0.0,0.0,48,0.00,,,0.00,meteohub,2013-04-05 04:01:00,
2013-04-04 23:06:00,47.7,28.9,-100.00,WNW,287,0.0,0.0,48,0.00,,,0.00,meteohub,2013-04-05 04:06:00,
2013-04-04 23:11:00,47.5,28.8,-100.00,WNW,287,0.0,0.0,48,0.00,,,0.00,meteohub,2013-04-05 04:11:00,
2013-04-04 23:16:00,47.3,29.1,-100.00,WNW,287,0.0,0.0,49,0.00,,,0.00,meteohub,2013-04-05 04:16:00,
2013-04-04 23:21:00,46.9,28.8,-100.00,WNW,287,0.0,0.0,49,0.00,,,0.00,meteohub,2013-04-05 04:21:00,
2013-04-04 23:26:00,46.8,29.1,-100.00,WNW,287,0.0,1.0,50,0.00,,,0.00,meteohub,2013-04-05 04:26:00,
2013-04-04 23:31:00,46.8,29.1,-100.00,WNW,287,0.0,1.0,50,0.00,,,0.00,meteohub,2013-04-05 04:31:00,
2013-04-04 23:36:00,46.8,29.1,-100.00,WNW,287,0.0,1.0,50,0.00,,,0.00,meteohub,2013-04-05 04:36:00,
2013-04-04 23:41:00,46.8,29.1,-100.00,WNW,287,0.0,0.0,50,0.00,,,0.00,meteohub,2013-04-05 04:41:00,
2013-04-04 23:46:00,46.8,29.1,-100.00,WNW,287,0.0,0.0,50,0.00,,,0.00,meteohub,2013-04-05 04:46:00,
2013-04-04 23:51:00,46.8,29.1,-100.00,WNW,287,0.0,0.0,50,0.00,,,0.00,meteohub,2013-04-05 04:51:00,
2013-04-04 23:56:00,46.8,29.1,-100.00,WNW,287,0.0,1.0,50,0.00,,,0.00,meteohub,2013-04-05 04:56:00,